Location: *
(48.8780°N, 19.2358°E)
Time: 18:10:28
(UTC+00:00)

SL-08 R/B - Pass Details

Date: 18 October 2019
Orbit: 943 x 1009 km, 82.9° (Epoch: 20 November)

Event Time Altitude Azimuth Distance (km) Brightness Sun altitude
Rises 18:40:28 0° 350° (N) 3,650 7.9 -28.7°
Reaches altitude 10° 18:42:59 10° 350° (N) 2,692 7.1 -29.1°
Enters shadow 18:48:55 84° 322° (NW) 959 4.3 -30.0°
